F4ECA-13 Weather Reports


time (UTC)temp
C
wind
direction
speed
KPH
gust
KPH
rain 1hr
cm
rain 24hr
cm
rain mn
cm
humidity
%
barometer
mb
20260507194517 14 23 4.8 4.8 0.00 0.00 23.09 61 1011.2
20260507193524 -17 23 6.4 6.4 0.00 0.00 23.09 1011.2
20260507192525 13 23 6.4 8.0 0.00 0.00 23.09 61 1011.2
20260507191606 14 23 4.8 6.4 0.00 0.00 23.09 61 1011.2
20260507190549 14 23 4.8 4.8 0.00 0.00 23.09 60 1011.2
20260507185524 14 23 3.2 4.8 0.00 0.00 23.09 59 1011.2
20260507184548 15 23 6.4 8.0 0.00 0.00 23.09 59 1011.2
20260507183517 15 23 6.4 6.4 0.00 0.00 23.09 59 1010.1
20260507182525 15 23 9.7 9.7 0.00 0.00 23.09 59 1011.2
20260507181545 15 23 6.4 6.4 0.00 0.00 23.09 58 1011.2
20260507180524 16 35 8.0 9.7 0.00 0.00 23.09 58 1010.1
20260507175524 16 23 6.4 9.7 0.00 0.00 23.09 58 1010.1
20260507174551 16 45 9.7 11.3 0.00 0.00 23.09 57 1010.1
20260507173524 16 45 11.3 12.9 0.00 0.00 23.09 57 1010.1
20260507172518 -17 45 6.4 9.7 0.00 0.00 23.09 1010.1
20260507171546 16 41 8.0 9.7 0.00 0.00 23.09 54 1010.1
20260507170528 16 45 9.7 9.7 0.00 0.10 23.09 54 1010.1
20260507165547 17 45 9.7 12.9 0.00 0.10 23.09 54 1010.1
20260507164538 17 0 4.8 6.4 0.00 0.10 23.09 54 1010.1
20260507163550 -17 35 6.4 8.0 0.00 0.10 23.09 1010.1
20260507162525 17 39 8.0 11.3 0.00 0.10 23.09 53 1010.1
20260507161517 17 45 6.4 8.0 0.00 0.10 23.09 52 1010.1
20260507160525 17 45 4.8 6.4 0.00 0.10 23.09 52 1010.1
20260507155538 18 49 9.7 9.7 0.00 0.10 23.09 51 1010.1
20260507154526 18 68 4.8 6.4 0.00 0.10 23.09 50 1010.1
20260507153609 18 68 3.2 4.8 0.00 0.10 23.09 50 1010.1
20260507152522 18 68 6.4 6.4 0.00 0.10 23.09 49 1010.1
20260507151530 19 40 6.4 8.0 0.00 0.10 23.09 49 1010.1
20260507150525 20 23 3.2 6.4 0.00 0.10 23.09 49 1011.2
20260507145545 20 23 3.2 4.8 0.00 0.10 23.09 49 1010.1
20260507144524 20 0 4.8 6.4 5.84 0.00 23.09 49 1010.1
20260507143526 20 45 11.3 14.5 0.00 0.10 6.99 48 1010.1
20260507142525 20 45 8.0 9.7 0.00 0.10 6.99 48 1011.2
20260507141524 20 0 4.8 4.8 0.00 0.10 6.99 49 1011.2
20260507140525 -17 0 6.4 6.4 0.00 0.10 6.99 1011.2
20260507135517 20 338 8.0 9.7 0.00 0.10 6.99 49 1011.2
20260507134516 -17 19 8.0 12.9 0.00 0.10 6.99 1011.2
20260507133536 21 0 8.0 9.7 0.00 0.10 6.88 48 1011.2
20260507132526 21 23 12.9 16.1 0.00 0.10 6.88 47 1011.2
20260507131530 21 3 6.4 9.7 0.00 0.10 6.88 47 1011.2
20260507130524 -17 0 4.8 8.0 0.00 0.10 6.88 1011.2
20260507125526 21 81 4.8 6.4 0.00 0.10 6.88 46 1011.2
20260507124524 21 23 3.2 4.8 0.00 0.10 6.88 46 1011.2
20260507123525 22 23 1.6 3.2 0.00 0.10 6.88 47 1011.2
20260507122525 -17 315 1.6 3.2 8.48 7.14 6.88 1011.2
20260507121545 22 315 1.6 3.2 0.00 0.10 6.88 49 1011.2
20260507120529 22 0 1.6 4.8 0.00 0.10 6.88 48 1011.2
20260507115521 21 0 3.2 4.8 0.00 0.10 6.88 48 1011.2
20260507114522 21 0 1.6 3.2 0.00 0.10 6.88 48 1011.2
20260507113524 21 0 4.8 6.4 0.00 0.10 6.81 48 1011.2
20260507112525 22 315 4.8 6.4 0.00 0.10 6.81 50 1011.2
20260507111520 22 305 4.8 8.0 0.00 0.10 6.81 51 1011.2
20260507110525 21 0 4.8 6.4 0.00 0.10 5.00 50 1011.2
20260507105529 21 337 6.4 9.7 0.00 0.10 3.51 50 1011.2
20260507104518 -17 308 4.8 9.7 0.00 0.10 16.51 1011.2
20260507103545 20 315 1.6 3.2 0.00 0.10 16.97 51 1011.2
20260507102521 21 306 3.2 4.8 0.00 0.10 16.97 52 1012.2
20260507101556 21 293 3.2 3.2 0.00 0.10 16.97 54 1012.2
20260507100525 21 293 3.2 6.4 0.00 0.10 16.97 55 1011.2
20260507095526 -17 226 3.2 4.8 0.00 0.10 16.97 1011.2
20260507094535 20 180 1.6 1.6 0.00 0.10 16.97 56 1011.2
20260507093522 21 180 3.2 4.8 0.00 0.10 16.97 57 1012.2
20260507092544 20 180 1.6 4.8 0.00 0.10 16.97 57 1011.2
20260507091547 18 180 3.2 4.8 0.00 0.10 16.97 63 1011.2
20260507090528 17 223 3.2 6.4 0.00 0.10 16.97 63 1011.2
20260507085524 16 270 3.2 3.2 0.00 0.10 16.97 64 1011.2
20260507084528 15 270 1.6 3.2 0.00 0.10 16.97 66 1011.2
20260507083524 15 270 1.6 4.8 0.00 5.92 16.97 66 1011.2
20260507082523 15 270 0.0 1.6 0.00 0.10 16.97 66 1011.2
20260507081518 15 270 4.8 6.4 0.00 0.10 16.97 65 1011.2
20260507080524 16 270 1.6 3.2 0.00 0.10 16.97 64 1011.2
20260507075524 16 0.0 0.0 0.00 0.10 16.97 64 1011.2
20260507074528 16 270 0.0 1.6 0.00 0.10 16.97 63 1011.2
20260507073528 17 270 1.6 3.2 0.00 0.10 16.97 63 1011.2
20260507072525 17 0.0 0.0 0.00 0.10 16.97 63 1011.2
20260507071528 15 270 1.6 1.6 0.00 0.10 16.97 67 1011.2
20260507070529 13 270 0.0 1.6 0.00 0.20 16.97 67 1011.2
20260507065524 13 270 1.6 1.6 0.00 0.20 16.97 66 1011.2
20260507064524 13 270 1.6 3.2 0.00 0.20 16.97 64 1011.2
20260507063525 13 270 4.8 6.4 0.00 0.20 16.97 64 1011.2
20260507062530 13 270 4.8 4.8 0.00 0.20 16.97 64 1011.2
20260507061528 13 270 6.4 6.4 0.00 0.20 16.97 64 1011.2
20260507060516 13 270 3.2 3.2 0.00 0.43 16.97 64 1011.2
20260507055525 13 270 3.2 4.8 0.00 0.43 16.97 64 1011.2
20260507054525 13 325 3.2 3.2 0.00 0.43 16.97 64 1011.2
20260507053528 13 0 0.0 1.6 0.00 0.43 16.97 64 1010.1
20260507052546 12 0.0 0.0 0.00 0.43 16.97 64 1010.1
20260507051553 12 0.0 0.0 0.00 0.43 16.97 64 1010.1
20260507050524 12 0.0 0.0 0.00 0.84 16.97 64 1010.1
20260507045545 12 0.0 0.0 0.00 0.84 16.97 64 1010.1
20260507044525 12 0.0 0.0 0.00 0.84 16.97 64 1010.1
20260507043524 12 0.0 0.0 0.00 0.84 16.97 64 1010.1
20260507042545 12 0.0 0.0 0.00 0.84 16.97 64 1010.1
20260507041528 12 0.0 0.0 0.00 0.84 16.97 64 1010.1
20260507040548 12 0.0 0.0 0.00 1.04 16.97 64 1010.1
20260507035524 12 0.0 0.0 0.00 1.04 16.97 64 1010.1
20260507034524 11 0.0 0.0 0.00 1.04 16.97 63 1010.1
20260507033546 11 0.0 0.0 0.00 1.04 16.97 63 1010.1
20260507032524 12 0.0 0.0 0.00 1.04 16.97 63 1010.1
20260507031539 12 0 1.6 1.6 0.00 1.04 16.97 63 1010.1
20260507030524 12 0 1.6 1.6 0.00 1.37 16.97 63 1010.1
20260507025526 12 0.0 0.0 0.00 1.37 16.97 63 1010.1
20260507024530 12 0 1.6 1.6 0.00 1.37 16.97 63 1010.1
20260507023522 12 0 4.8 4.8 0.00 1.37 16.97 63 1010.1
20260507022525 12 0.0 0.0 0.00 1.37 16.97 63 1010.1
20260507021524 12 0.0 0.0 0.00 1.37 16.97 63 1010.1
20260507020529 12 0.0 0.0 8.48 6.86 16.97 63 1010.1
20260507015519 12 0.0 0.0 0.00 1.47 8.48 63 1010.1
20260507014528 12 0.0 0.0 0.00 1.47 8.48 63 1010.1
20260507013525 12 0.0 0.0 0.00 1.47 8.48 63 1010.1
20260507012519 -17 0.0 0.0 0.00 1.47 8.48 1010.1
20260507011528 12 0.0 0.0 0.00 1.47 8.48 63 1010.1
20260507010515 -17 0.0 0.0 0.00 6.71 8.48 1010.1